Regional Weather Roundup
Issued by NWS New Orleans/Baton Rouge, LA

Home | Current Version | Previous Version | Text Only | Print | Product List | Glossary On
Versions: 1 2 3 4 5 6 7 8 9 10 11 12 13 14 15 16 17 18 19 20 21 22 23 24 25 26 27 28 29 30 31 32 33 34 35 36 37 38 39 40 41 42 43 44 45 46 47 48 49 50
000
ASUS44 KLIX 050810
RWRLIX
NEW ORLEANS REGIONAL WEATHER ROUNDUP
NATIONAL WEATHER SERVICE NEW ORLEANS LA
200 AM CST THU MAR 05 2015

NOTE: "FAIR" INDICATES FEW OR NO CLOUDS BELOW 12,000 FEET WITH NO
      SIGNIFICANT WEATHER AND/OR OBSTRUCTIONS TO VISIBILITY.
      SKY/WX - SKY CONDITION AND SIGNIFICANT WEATHER.
      TMP - AIR TEMPERATURE.     DP    - DEWPOINT TEMPERATURE.
      RH  - RELATIVE HUMIDITY.   PRES  - PRESSURE.
      HI  - HEAT INDEX.          WCI   - WIND CHILL INDEX.

*  THESE STATIONS ARE NOT NWS OR FAA STATIONS AND ARE NOT UNDER
   NWS QUALITY CONTROL.

LAZ038-040-048-061>063-065>067-069-050900-
SOUTHEAST LOUISIANA

CITY           SKY/WX    TMP DP  RH WIND       PRES   REMARKS
N.O. AUDUBON     N/A     69  69 100 MISG        N/A
N.O. INTL ARPT PTCLDY    70  67  90 S9        29.92F
N.O. LAKEFRONT MOCLDY    73  68  84 SW16      29.93S
SLIDELL        CLOUDY    70  69  97 S8        29.91F
BATON ROUGE    CLOUDY    57  54  89 NW14      29.93R
BOOTHVILLE     CLEAR     71  69  93 SW6       29.96F
BELLE CHASSE   CLOUDY    72  68  87 SW9       29.93F
BOGALUSA*        N/A     73  68  84 SW9       29.92F
GALLIANO*      MOSUNNY   68  67  95 S9        29.94F FOG
NEW ROADS*     LGT RAIN  44  42  94 N14G20    29.97S
GONZALES*      PTSUNNY   71  71 100 S10       29.90F
HAMMOND*       CLOUDY    73  68  83 SW5       29.93R
HOUMA*         CLEAR     72  69  92 S8        29.93S
PORT FOURCHON* SUNNY     70  68  94 SW6       29.97F FOG

$$

MSZ070-080>082-050900-
SOUTHERN MISSISSIPPI

CITY           SKY/WX    TMP DP  RH WIND       PRES   REMARKS
MCCOMB         LGT RAIN  45  44  97 N12       29.97R
GULFPORT       CLOUDY    68  67  96 S9        29.91F FOG
BILOXI         CLOUDY    64  64 100 SW9       29.91F FOG
PASCAGOULA     MOCLDY    69  68  96 S6        29.93F

$$

COASTAL OBSERVATIONS
LAKE AND NEARSHORE STATIONS

STATION/POSITION TIME  TEMP    WIND        PRES    WAVE
                       AIR SEA DIR/SP/G            HT/PER
                 (UTC) (F)     (DEG/KT/KT) (MB)    (FT/S)
PASCAGOULA       0800   66     210/ 12/ 14 1013.2
WAVELAND YACHT   0800   69 60  220/  6/ 11 1012.8
GRAND ISLE       0800   70 66  210/  5/  6 1014.2
SOUTHWEST PASS   0800   62 45  170/  4/  5 1014.5
NEW CANAL        0800   71     200/ 10/ 14 1013.6
SHELL BEACH      0800   71 63  190/  9/ 12 1013.1

OFFSHORE STATIONS

STATION/POSITION TIME  TEMP    WIND        PRES    WAVE
                       AIR SEA DIR/SP/G            HT/PER
                 (UTC) (F)     (DEG/KT/KT) (MB)    (FT/S)
64 S DAUPHIN ISL 0710   73 72  200/ 10/ 12 1014.8    5/ 6

$$




USA.gov is the U.S. government's official web portal to all federal, state and local government web resources and services.